Regional Weather Roundup
Issued by NWS Wilmington, NC

Home | Current Version | Previous Version | Text Only | Print | Product List | Glossary On
Versions: 1 2 3 4 5 6 7 8 9 10 11 12 13 14 15 16 17 18 19 20 21 22 23 24 25 26 27 28 29 30 31 32 33 34 35 36 37 38 39 40 41 42 43 44 45 46 47 48 49 50
000
ASUS42 KILM 281210
RWRILM
RWRILM
REGIONAL HOURLY WEATHER ROUNDUP
NATIONAL WEATHER SERVICE WILMINGTON NC
700 AM EST SAT FEB 28 2015

NOTE: "FAIR" INDICATES FEW OR NO CLOUDS BELOW 12,000 FEET WITH NO
SIGNIFICANT WEATHER AND/OR OBSTRUCTIONS TO VISIBILITY.

...............WFO WILMINGTON COUNTY WARNING AREA...............

......COASTAL NC AND SC COUNTIES......

CITY           SKY/WX    TMP DP  RH WIND       PRES   REMARKS
WILMINGTON     PTCLDY    30  27  88 NE12      30.64R FOG     WCI  20
SOUTHPORT      MOCLDY    32  28  86 NE10G17   30.60R WCI  23
N MYRTLE BEACH PTCLDY    33  27  78 N10       30.60R WCI  25
MYRTLE BEACH   CLEAR     34  28  80 NE12      30.61R WCI  25

......INLAND NC AND SC COUNTIES.......

CITY           SKY/WX    TMP DP  RH WIND       PRES   REMARKS
LUMBERTON      PTCLDY    30  25  81 NE12      30.66R HAZE    WCI  20
ELIZABETHTOWN  PTCLDY    29  27  92 N6        30.66R FOG     WCI  23
WHITEVILLE     PTCLDY    31  27  86 NE8       30.64R FOG     WCI  23
FLORENCE       PTCLDY    32  26  78 NE10      30.63R WCI  24
DARLINGTON     CLEAR     30  23  74 NE9       30.66R WCI  22

....................REST OF NORTH CAROLINA......................

.........EASTERN NC.........

CITY           SKY/WX    TMP DP  RH WIND       PRES   REMARKS
CAPE HATTERAS  PTCLDY    34  27  75 NE12G25   30.65R WCI  25
JACKSONVILLE   PTCLDY    28  21  74 N12       30.68R WCI  18
MOREHEAD CITY  PTCLDY    32  24  72 NE14G23   30.66R WCI  22
KENANSVILLE    PTCLDY    28  21  73 NE6       30.69R WCI  22
NEW BERN       PTCLDY    29  23  78 NE13      30.70R WCI  19
ELIZABETH CITY CLEAR     27  17  66 N15       30.74R WCI  15

.........CENTRAL NC.........

CITY           SKY/WX    TMP DP  RH WIND       PRES   REMARKS
RALEIGH DURHAM MOCLDY    26  17  68 NE10      30.71R WCI  16
ROCKY MOUNT    CLEAR     26  19  74 NE9       30.73R WCI  17
ROANOKE RAPIDS NOT AVBL
FAYETTEVILLE   CLEAR     28  20  71 NE12      30.68R WCI  18
HOFFMAN        MOCLDY    29  22  77 NE9       30.71R WCI  20

.........WESTERN NC.........

CITY           SKY/WX    TMP DP  RH WIND       PRES   REMARKS
CHARLOTTE      CLOUDY    29  10  45 NE10      30.66R WCI  20
GREENSBORO     CLOUDY    24  13  62 NE8       30.67R WCI  15
HICKORY        NOT AVBL
BOONE          NOT AVBL
ASHEVILLE      NOT AVBL

.....................REST OF SOUTH CAROLINA.....................

.........EASTERN SC.........

CITY           SKY/WX    TMP DP  RH WIND       PRES   REMARKS
CHARLESTON     CLOUDY    38  34  85 N14       30.55R WCI  30
BEAUFORT MCAS  CLOUDY    42  37  82 NE15      30.51R
HILTON HEAD    CLOUDY    46  39  76 N12G23    30.49

.........CENTRAL SC.........

CITY           SKY/WX    TMP DP  RH WIND       PRES   REMARKS
COLUMBIA       MOCLDY    35  23  61 NE8       30.62R WCI  29
ORANGEBURG     MOCLDY    35  27  72 NE10      30.59R WCI  27
SUMTER SHAW    MOCLDY    31  26  78 NE14      30.61R WCI  21

.........WESTERN SC.........

CITY           SKY/WX    TMP DP  RH WIND       PRES   REMARKS
GREENVILLE     NOT AVBL
ROCK HILL      MOCLDY    30  13  49 NE8       30.66R WCI  22
ANDERSON       MOCLDY    34  18  52 E10G21    30.61R WCI  26
CLEMSON        NOT AVBL
GREENWOOD      PTCLDY    33  22  63 NE7       30.63R WCI  27


...................COASTAL AND OFFSHORE REPORTS..................

................LOCAL PIERS AND NC RESERVE................


STATION/POSITION TIME  SKY/WX   TEMP    WIND        PRES    VSBY
                                AIR SEA DIR/SP/G
                 (UTC)          (F)     (DEG/KT/KT) (MB)    (MI)
JOHNY MRCER PIER 1200            32 47   10/ 13/ 17 1036.4R
NC RESRV MASNBRO 1100            32      20/  7     1035.0R
OCEAN CREST PIER 1200            32 46  360/ 14/ 17 1035.0R
SPRINGMAID  PIER 1200            34 45  360/ 10/ 15 1035.8R


................COASTAL AND OFFSHORE BUOYS................


STATION/POSITION TIME  SKY/WX   TEMP    WIND        PRES    VSBY
                                AIR SEA DIR/SP/G
                 (UTC)          (F)     (DEG/KT/KT) (MB)    (MI)
DIMNDSHOAL 41025 NOT AVBL
CAPE LOOKOUT     1100            34      20/ 19/ 25 1036.8R
ONSLOW BAY 41036 NOT AVBL
5 WRITEBCH 41038 NOT AVBL
MASONBORO  41110 1200               47                N/A
WVE H/P(F/S)=  6/ 5 WND WVE H/P(F/S)=  5/ 5 SWL H/P/D(F/S/D)=  2/110/11

WILM HARBR 41108 1200               47                N/A
WVE H/P(F/S)=  5/ 5 WND WVE H/P(F/S)=  5/ 5

27WRITEBCH 41037 NOT AVBL
FRYING PAN 41013 1200            47 63   50/ 25/ 31 1034.4R
WVE H/P(F/S)=  8/ 7 WND WVE H/P(F/S)=  7/ 7 SWL H/P/D(F/S/D)=  2/ 80/10

SUNST NRSH 41024 1100            34                   N/A
CAPRS NRSH 41029 NOT AVBL
EDISTO     41004 1200            54 65   50/ 25/ 31 1031.5R
WVE H/P(F/S)=  8/ 7 WND WVE H/P(F/S)=  7/ 7 SWL H/P/D(F/S/D)=  2/10



..........OFFSHORE BUOYS BEYOND 100 NM OFFSHORE...........
.....IN A TRIANGLE---HAT TO BERMUDA TO BAHAMAS TO HAT.....


STATION/POSITION TIME  SKY/WX   TEMP    WIND        PRES    VSBY
                                AIR SEA DIR/SP/G
                 (UTC)          (F)     (DEG/KT/KT) (MB)    (MI)
150E HAT   41001 NOT AVBL
W BERMUDA  41048 1117            66 69   40/ 10/ 14 1026.9R
WVE H/P(F/S)=  7/ 9 WND WVE H/P(F/S)=  2/ 4 SWL H/P/D(F/S/D)=  7/340/ 9

ATLANTIC S 41049 1150            73 73   40/  8/ 10 1026.6R
WVE H/P(F/S)=  5/ 8 WND WVE H/P(F/S)=  2/ 3 SWL H/P/D(F/S/D)=  5/110/ 8

E BAHAMAS  41046 1139            77 77   90/ 16/ 17 1023.4R
WVE H/P(F/S)=  5/ 8 WND WVE H/P(F/S)=  3/ 5 SWL H/P/D(F/S/D)=  3/110/ 8

NE BAHAMAS 41047 1054            74 74  140/  8/ 10 1024.9
WVE H/P(F/S)=  6/11 WND WVE H/P(F/S)=  2/ 4 SWL H/P/D(F/S/D)=  5/360/11

120E CANVRL41010 1200            66 70   60/ 21/ 25 1026.4R
WVE H/P(F/S)=  7/ 7 WND WVE H/P(F/S)=  5/ 7 SWL H/P/D(F/S/D)=  3/ 40/11


END



USA.gov is the U.S. government's official web portal to all federal, state and local government web resources and services.